When you browse on this site, cookies collect data to enhance your experience and personalize the content and advertising you see.
Visit our Privacy Policy to learn more. By continuing to use the site, you agree to this use of cookies and data.
  • In Schweiz
  • Länderverzeichnis
  • Für 7 Tage
  • Wassertemperatur
  • Wetterkarte
  • Widgets
  • user-avatar
    Anmelden

    Stündliche Wetter Losenets

    Heute, 26 Februar, Mittwoch

    Zeit Temperatur Niederschläge Wind Luftdruck Luftfeuchtigkeit
    00:00 +9°C° 0 mm 5 m/S 754 mmHg 58%
    01:00 +9°C° 0 mm 5 m/S 754 mmHg 59%
    02:00 +9°C° 0 mm 5 m/S 753 mmHg 59%
    03:00 +9°C° 0 mm 6 m/S 753 mmHg 59%
    04:00 +9°C° 0 mm 6 m/S 752 mmHg 59%
    05:00 +10°C° 0 mm 6 m/S 752 mmHg 58%
    06:00 +10°C° 0 mm 6 m/S 752 mmHg 61%
    07:00 +10°C° 0 mm 6 m/S 752 mmHg 64%
    08:00 +10°C° 0 mm 6 m/S 752 mmHg 67%
    09:00 +11°C° 0 mm 6 m/S 751 mmHg 66%
    10:00 +14°C° 0 mm 6 m/S 751 mmHg 65%
    11:00 +15°C° 0 mm 6 m/S 751 mmHg 63%
    12:00 +16°C° 0 mm 7 m/S 750 mmHg 63%
    13:00 +16°C° 0 mm 7 m/S 750 mmHg 62%
    14:00 +17°C° 0 mm 7 m/S 750 mmHg 61%
    15:00 +17°C° 0 mm 7 m/S 749 mmHg 63%
    16:00 +16°C° 0 mm 7 m/S 749 mmHg 64%
    17:00 +15°C° 0 mm 7 m/S 749 mmHg 66%
    18:00 +15°C° 0 mm 8 m/S 749 mmHg 68%
    19:00 +15°C° 0 mm 9 m/S 749 mmHg 70%
    20:00 +13°C° 0 mm 10 m/S 749 mmHg 72%
    21:00 +13°C° 0 mm 10 m/S 749 mmHg 73%
    22:00 +13°C° 0 mm 10 m/S 749 mmHg 73%
    23:00 +13°C° 0 mm 10 m/S 748 mmHg 74%

    Morgen, 27 Februar, Donnerstag

    Zeit Temperatur Niederschläge Wind Luftdruck Luftfeuchtigkeit
    00:00 +13°C° 0 mm 10 m/S 748 mmHg 75%
    01:00 +13°C° 0 mm 9 m/S 748 mmHg 76%
    02:00 +13°C° 0 mm 9 m/S 748 mmHg 77%
    03:00 +13°C° 0 mm 9 m/S 748 mmHg 77%
    04:00 +13°C° 0 mm 9 m/S 748 mmHg 77%
    05:00 +13°C° 0 mm 9 m/S 748 mmHg 77%
    06:00 +13°C° 0 mm 9 m/S 748 mmHg 76%
    07:00 +13°C° 0 mm 9 m/S 748 mmHg 76%
    08:00 +13°C° 0 mm 9 m/S 748 mmHg 75%
    09:00 +15°C° 0.1 mm 9 m/S 748 mmHg 69%
    10:00 +15°C° 0.1 mm 9 m/S 748 mmHg 64%
    11:00 +16°C° 0.1 mm 10 m/S 748 mmHg 58%
    12:00 +16°C° 0.3 mm 10 m/S 748 mmHg 55%
    13:00 +16°C° 0.3 mm 10 m/S 748 mmHg 52%
    14:00 +16°C° 0.3 mm 11 m/S 748 mmHg 48%
    15:00 +15°C° 0 mm 8 m/S 748 mmHg 53%
    16:00 +13°C° 0 mm 6 m/S 748 mmHg 58%
    17:00 +11°C° 0 mm 4 m/S 748 mmHg 63%
    18:00 +10°C° 0 mm 4 m/S 749 mmHg 64%
    19:00 +8°C° 0 mm 5 m/S 750 mmHg 66%
    20:00 +7°C° 0 mm 5 m/S 750 mmHg 67%
    21:00 +7°C° 0 mm 5 m/S 751 mmHg 66%
    22:00 +5°C° 0 mm 6 m/S 752 mmHg 64%
    23:00 +5°C° 0 mm 6 m/S 753 mmHg 62%

    übermorgen, 28 Februar, Freitag

    Zeit Temperatur Niederschläge Wind Luftdruck Luftfeuchtigkeit
    00:00 +4°C° 0 mm 6 m/S 754 mmHg 65%
    01:00 +5°C° 0 mm 5 m/S 755 mmHg 68%
    02:00 +4°C° 0 mm 4 m/S 755 mmHg 72%
    03:00 +4°C° 0 mm 4 m/S 756 mmHg 71%
    04:00 +3°C° 0 mm 4 m/S 756 mmHg 70%
    05:00 +3°C° 0 mm 3 m/S 756 mmHg 70%
    06:00 +3°C° 0 mm 3 m/S 756 mmHg 68%
    07:00 +4°C° 0 mm 3 m/S 757 mmHg 66%
    08:00 +4°C° 0 mm 3 m/S 757 mmHg 64%
    09:00 +7°C° 0 mm 3 m/S 757 mmHg 57%
    10:00 +8°C° 0 mm 3 m/S 757 mmHg 50%
    11:00 +10°C° 0 mm 3 m/S 757 mmHg 43%
    12:00 +10°C° 0 mm 4 m/S 756 mmHg 43%
    13:00 +10°C° 0 mm 4 m/S 756 mmHg 42%
    14:00 +10°C° 0 mm 5 m/S 756 mmHg 42%
    15:00 +11°C° 0 mm 4 m/S 755 mmHg 47%
    16:00 +11°C° 0 mm 4 m/S 755 mmHg 52%
    17:00 +11°C° 0 mm 3 m/S 755 mmHg 57%
    18:00 +10°C° 0 mm 3 m/S 755 mmHg 61%
    19:00 +8°C° 0 mm 4 m/S 756 mmHg 65%
    20:00 +7°C° 0 mm 4 m/S 756 mmHg 68%
    21:00 +6°C° 0 mm 5 m/S 757 mmHg 68%
    22:00 +5°C° 0 mm 6 m/S 757 mmHg 68%
    23:00 +5°C° 0 mm 6 m/S 757 mmHg 67%

    29 Februar, Samstag

    Zeit Temperatur Niederschläge Wind Luftdruck Luftfeuchtigkeit
    00:00 +5°C° 0 mm 7 m/S 757 mmHg 65%
    01:00 +4°C° 0 mm 7 m/S 758 mmHg 63%
    02:00 +4°C° 0 mm 7 m/S 758 mmHg 61%
    03:00 +3°C° 0 mm 7 m/S 758 mmHg 60%
    04:00 +3°C° 0 mm 7 m/S 758 mmHg 59%
    05:00 +2°C° 0 mm 8 m/S 759 mmHg 58%
    06:00 +3°C° 0 mm 7 m/S 759 mmHg 57%
    07:00 +3°C° 0 mm 7 m/S 760 mmHg 56%
    08:00 +3°C° 0 mm 7 m/S 760 mmHg 55%
    09:00 +4°C° 0 mm 7 m/S 760 mmHg 52%
    10:00 +5°C° 0 mm 6 m/S 761 mmHg 48%
    11:00 +8°C° 0 mm 6 m/S 761 mmHg 44%
    12:00 +8°C° 0 mm 6 m/S 761 mmHg 41%
    13:00 +9°C° 0 mm 5 m/S 761 mmHg 39%
    14:00 +11°C° 0 mm 4 m/S 760 mmHg 37%
    15:00 +10°C° 0 mm 3 m/S 761 mmHg 39%
    16:00 +10°C° 0 mm 2 m/S 761 mmHg 40%
    17:00 +11°C° 0 mm 1 m/S 761 mmHg 42%
    18:00 +9°C° 0 mm 2 m/S 761 mmHg 45%
    19:00 +7°C° 0 mm 2 m/S 761 mmHg 48%
    20:00 +6°C° 0 mm 2 m/S 762 mmHg 51%
    21:00 +6°C° 0 mm 2 m/S 762 mmHg 51%
    22:00 +6°C° 0 mm 2 m/S 762 mmHg 50%
    23:00 +5°C° 0 mm 2 m/S 762 mmHg 50%

    1 März, Sonntag

    Zeit Temperatur Niederschläge Wind Luftdruck Luftfeuchtigkeit
    00:00 +5°C° 0 mm 2 m/S 762 mmHg 53%
    01:00 +5°C° 0 mm 2 m/S 762 mmHg 56%
    02:00 +5°C° 0 mm 2 m/S 762 mmHg 59%
    03:00 +5°C° 0 mm 2 m/S 761 mmHg 61%
    04:00 +5°C° 0 mm 2 m/S 761 mmHg 62%
    05:00 +5°C° 0 mm 2 m/S 761 mmHg 63%
    06:00 +5°C° 0 mm 2 m/S 761 mmHg 61%
    07:00 +6°C° 0 mm 2 m/S 761 mmHg 60%
    08:00 +6°C° 0 mm 2 m/S 761 mmHg 58%
    09:00 +8°C° 0 mm 3 m/S 761 mmHg 53%
    10:00 +10°C° 0 mm 3 m/S 761 mmHg 49%
    11:00 +12°C° 0 mm 4 m/S 761 mmHg 44%
    12:00 +12°C° 0 mm 4 m/S 761 mmHg 44%
    13:00 +13°C° 0 mm 5 m/S 760 mmHg 44%
    14:00 +14°C° 0 mm 5 m/S 760 mmHg 45%
    15:00 +14°C° 0 mm 5 m/S 759 mmHg 47%
    16:00 +13°C° 0 mm 5 m/S 759 mmHg 50%
    17:00 +13°C° 0 mm 5 m/S 759 mmHg 52%
    18:00 +10°C° 0 mm 5 m/S 759 mmHg 56%
    19:00 +10°C° 0 mm 4 m/S 759 mmHg 59%
    20:00 +8°C° 0 mm 4 m/S 759 mmHg 63%
    21:00 +8°C° 0 mm 4 m/S 759 mmHg 66%
    22:00 +7°C° 0 mm 4 m/S 758 mmHg 69%
    23:00 +7°C° 0 mm 4 m/S 758 mmHg 72%

    2 März, Montag

    Zeit Temperatur Niederschläge Wind Luftdruck Luftfeuchtigkeit
    00:00 +8°C° 0 mm 4 m/S 758 mmHg 73%
    01:00 +8°C° 0 mm 4 m/S 757 mmHg 74%
    02:00 +8°C° 0 mm 4 m/S 757 mmHg 76%
    03:00 +8°C° 0 mm 4 m/S 757 mmHg 77%
    04:00 +8°C° 0 mm 4 m/S 756 mmHg 79%
    05:00 +10°C° 0 mm 4 m/S 756 mmHg 81%
    06:00 +10°C° 0 mm 4 m/S 756 mmHg 81%
    07:00 +11°C° 0 mm 4 m/S 756 mmHg 81%
    08:00 +11°C° 0 mm 4 m/S 756 mmHg 82%
    09:00 +12°C° 0.1 mm 4 m/S 756 mmHg 81%
    10:00 +12°C° 0.1 mm 4 m/S 756 mmHg 79%
    11:00 +13°C° 0.1 mm 4 m/S 756 mmHg 78%
    12:00 +14°C° 0.3 mm 4 m/S 755 mmHg 76%
    13:00 +16°C° 0.3 mm 3 m/S 755 mmHg 73%
    14:00 +17°C° 0.3 mm 3 m/S 755 mmHg 71%
    15:00 +17°C° 0.7 mm 3 m/S 754 mmHg 72%
    16:00 +16°C° 0.7 mm 3 m/S 754 mmHg 73%
    17:00 +16°C° 0.7 mm 3 m/S 754 mmHg 74%
    18:00 +14°C° 0.3 mm 3 m/S 754 mmHg 78%
    19:00 +13°C° 0.3 mm 3 m/S 755 mmHg 82%
    20:00 +13°C° 0.3 mm 2 m/S 755 mmHg 86%
    21:00 +12°C° 0 mm 3 m/S 755 mmHg 85%
    22:00 +12°C° 0 mm 3 m/S 755 mmHg 85%
    23:00 +12°C° 0 mm 3 m/S 756 mmHg 84%
    Mehr zeigen